Temperature
16 17 17 17 17 16 16 16 16 16 16 16 16 16 16 16 16 16 16 15 15 15 15 15 15 15 15 15 15 15 15 15 15 15 15 15 15 15 15 14 15 15 15
16 17 17 17 16 16 16 16 16 16 16 16 16 16 16 16 16 15 15 15 15 15 15 15 15 15 15 15 15 15 15 15 15 15 15 15 15 15 14 14 14 14 14
16 17 16 16 16 16 16 16 16 16 16 15 15 15 15 15 15 15 15 15 15 15 15 15 15 15 15 15 15 15 15 15 15 14 14 14 15 14 14 14 14 14 14
16 16 16 16 16 16 16 16 16 16 15 15 15 15 15 15 15 15 15 15 15 15 15 15 15 15 15 15 15 15 15 14 14 14 14 14 14 14 14 14 14 14 14
15 16 16 16 16 16 16 16 16 16 15 15 15 15 15 15 15 15 15 15 15 15 15 15 15 15 15 15 15 14 14 14 14 14 13 14 14 14 14 14 14 14 14
15 15 15 15 15 15 16 15 15 15 15 15 15 15 15 15 15 15 15 15 15 15 15 15 15 14 14 14 14 14 14 14 13 13 13 13 13 13 13 14 13 13 13
14 15 15 15 15 15 15 15 15 15 15 15 15 15 15 15 15 14 14 14 14 15 15 14 14 14 14 14 14 14 13 13 13 13 13 13 13 13 13 13 13 13 13
14 14 15 15 15 15 15 15 15 15 15 15 15 15 15 15 14 14 14 14 14 14 14 14 14 14 14 14 14 13 13 13 13 13 13 13 13 13 13 13 13 13 13
14 14 14 14 14 15 15 15 15 15 15 15 15 15 14 14 14 14 14 14 14 14 14 14 14 14 14 14 14 13 13 13 13 13 13 12 12 12 12 12 13 12 12
13 14 14 14 14 14 14 14 14 14 14 14 14 14 14 14 14 14 14 14 14 14 13 13 13 13 13 13 13 13 13 13 13 12 12 12 12 12 12 12 12 12 12
13 13 13 14 14 14 14 14 14 14 14 14 14 14 14 14 14 14 14 13 13 13 13 13 13 13 13 13 13 13 13 12 12 12 12 12 12 12 12 12 12 12 12
13 13 13 13 13 14 14 14 14 14 14 14 14 14 14 13 13 13 13 13 13 13 13 13 13 13 13 13 13 12 12 12 12 12 12 12 12 12 12 12 12 12 12
12 12 12 13 13 13 13 13 13 13 13 13 13 13 13 13 13 13 13 13 13 13 13 13 12 12 12 12 12 12 12 12 12 12 12 12 12 12 12 12 12 11 11
12 12 12 13 13 13 13 13 13 13 13 13 13 13 13 13 13 13 13 13 13 13 12 12 12 12 12 12 12 12 12 11 11 11 11 11 11 11 11 12 11 11 11
11 12 12 12 12 12 13 13 13 12 12 12 13 13 13 13 12 12 12 12 12 12 12 12 12 12 12 12 12 12 11 11 11 11 11 11 11 11 11 11 11 11 11
11 11 11 12 12 12 12 12 12 12 12 12 12 12 12 12 12 12 12 12 12 12 12 12 11 11 11 11 11 11 11 11 11 11 11 11 11 11 11 11 11 11 11
10 11 11 11 11 12 12 12 12 12 12 12 12 12 12 12 12 12 11 12 12 12 12 11 11 11 11 11 11 11 11 11 11 11 11 11 11 11 11 11 11 11 11
10 10 10 10 11 11 11 11 11 11 11 11 11 11 11 11 11 11 11 11 11 11 11 11 11 11 11 11 11 11 11 11 11 11 11 11 10 10 11 11 11 11 11
9 10 10 10 10 11 11 11 11 11 11 11 11 11 11 11 11 11 11 11 11 11 11 11 11 11 11 10 10 10 10 10 10 10 10 10 10 10 10 10 10 10 10
9 9 9 10 10 10 10 10 10 10 10 10 10 10 10 10 10 10 10 10 10 10 10 10 10 10 10 10 10 10 10 10 10 10 10 10 10 10 10 10 10 10 10
9 9 9 9 9 9 9 10 10 10 10 10 10 10 10 10 10 10 10 10 10 10 9 9 9 9 9 9 9 9 9 9 9 9 9 9 9 9 9 9 9 9 9
9 9 8 9 9 9 9 9 9 9 9 9 9 9 10 10 10 10 10 9 9 9 9 9 9 9 9 9 8 8 8 8 9 9 9 8 9 9 9 9 9 9 9
8 8 8 8 8 8 9 9 9 9 9 9 9 9 9 9 9 9 9 9 9 9 8 8 8 8 8 8 8 8 7 7 8 8 8 8 8 8 8 8 8 8 8
7 7 8 8 8 8 8 8 8 8 8 8 8 8 8 8 8 8 8 8 8 8 8 8 8 8 7 7 7 7 7 7 7 7 7 7 7 7 8 8 8 8 8
7 7 7 7 7 7 7 7 8 7 7 7 7 7 8 8 8 8 8 8 8 8 7 7 7 7 7 7 7 7 6 6 6 6 6 6 7 7 7 7 7 7 7
6 7 7 6 6 7 7 7 7 7 7 7 7 7 7 7 7 7 7 7 7 7 7 7 7 6 6 6 6 6 6 6 6 6 6 6 6 6 6 7 7 7 6
Wind_Speed
6 8 9 8 8 7 8 9 9 10 11 11 11 12 12 12 12 13 13 13 13 13 13 14 14 15 15 15 15 15 15 15 16 15 15 15 15 15 15 15 16 16 17
7 10 9 8 8 8 8 9 10 10 10 11 11 12 12 12 12 12 12 13 13 13 13 13 14 14 15 14 14 13 13 13 13 13 14 14 14 15 15 16 15 15 16
8 10 9 8 8 8 9 10 10 10 10 11 11 11 11 11 12 12 12 12 12 13 13 13 13 13 13 13 13 12 11 11 11 10 11 11 13 14 14 15 15 15 15
8 10 8 9 8 8 9 9 9 9 10 10 11 11 10 11 11 11 11 11 11 12 12 13 12 12 12 12 11 10 9 8 7 8 8 10 12 13 13 13 14 14 14
7 10 9 9 8 8 9 9 9 9 10 10 10 10 10 10 10 10 11 11 11 11 11 11 11 11 11 11 10 9 7 7 6 7 9 11 12 12 12 12 12 13 13
7 10 9 8 8 8 9 9 9 9 10 10 10 10 10 9 10 10 10 10 11 11 11 11 11 10 10 9 8 7 6 6 6 7 9 11 11 11 11 11 11 12 12
6 9 9 8 8 8 8 8 8 9 9 10 10 9 9 9 9 9 10 10 10 10 10 10 9 9 9 7 6 5 5 6 6 7 9 10 11 11 11 10 11 11 11
6 7 8 8 7 7 7 8 8 8 8 9 9 9 9 9 9 9 9 9 9 9 9 9 8 8 7 6 5 4 3 4 5 7 8 10 11 10 10 10 9 9 9
6 6 6 6 6 6 7 7 8 8 8 8 8 8 8 9 8 8 8 8 8 8 7 8 7 7 6 4 3 3 3 3 4 5 7 9 9 9 8 8 8 7 7
5 5 4 4 5 5 6 7 8 8 8 7 8 8 8 8 8 8 8 8 7 7 6 6 6 5 4 3 1 1 2 2 4 5 6 8 8 8 7 7 7 6 5
4 3 3 3 4 5 5 6 7 8 7 7 7 8 8 6 7 7 8 7 7 6 5 5 5 4 3 2 1 1 1 1 4 4 6 8 7 7 6 6 5 5 4
3 2 2 3 3 4 4 5 5 5 6 6 6 6 6 6 6 7 8 7 6 5 5 4 4 4 3 2 2 2 1 2 4 4 6 8 6 5 5 4 4 3 3
1 2 2 2 3 3 3 3 3 4 4 4 5 4 4 5 6 6 6 6 5 5 3 3 2 2 2 1 2 2 1 2 4 4 6 7 5 4 3 3 3 2 1
2 2 2 2 3 3 3 3 3 3 3 3 4 4 4 4 3 4 4 4 4 3 2 1 2 1 1 1 1 1 1 2 4 4 5 6 4 3 3 3 3 2 1
1 2 2 2 2 2 2 2 3 3 3 4 5 4 4 3 2 3 3 3 3 3 2 1 1 1 1 0 1 1 1 1 4 5 5 6 4 3 3 4 3 3 3
1 1 1 2 3 2 2 3 3 3 4 4 5 5 5 4 3 2 2 2 2 2 1 0 0 0 0 0 1 1 0 1 3 5 5 5 4 3 3 4 4 4 4
2 2 2 2 3 3 3 3 3 3 4 4 5 5 5 5 4 3 2 2 2 2 1 1 1 1 0 1 1 1 1 0 2 4 5 5 5 3 2 2 3 3 2
2 2 2 2 3 3 2 3 3 4 4 4 5 4 4 5 4 3 2 2 2 2 1 0 0 1 1 1 1 2 1 1 1 3 4 5 5 4 3 3 2 2 2
2 3 3 3 2 2 2 3 4 4 4 5 5 4 3 4 4 4 2 2 2 2 1 1 1 0 0 1 1 2 1 1 1 1 2 3 4 4 4 3 3 3 3
2 3 3 3 3 2 2 2 3 3 3 4 4 3 3 4 4 4 3 3 2 1 1 1 1 1 0 1 2 2 2 2 1 1 1 2 2 3 3 3 4 3 4
3 3 2 3 2 2 1 1 2 2 3 3 3 3 3 4 4 3 2 2 2 1 1 1 1 1 1 1 0 1 2 1 2 2 1 2 2 1 2 2 3 3 3
2 2 2 2 2 2 1 1 1 2 3 3 2 3 3 3 3 2 2 1 1 1 1 1 1 0 1 1 1 0 1 2 2 2 2 2 1 1 1 1 2 2 3
2 2 2 2 2 2 3 2 2 2 2 2 2 2 2 3 3 2 2 1 1 1 0 1 1 0 1 1 1 1 1 2 2 1 2 2 1 1 1 2 2 2 3
2 2 2 2 2 2 2 2 3 2 2 1 1 2 1 2 2 2 1 1 1 1 1 1 1 0 1 1 1 1 1 1 1 2 2 1 2 2 2 1 2 3 3
3 2 2 2 2 2 2 2 2 1 1 1 1 1 1 1 2 2 1 0 1 1 1 1 1 1 1 1 1 1 1 2 0 1 2 2 2 1 1 1 2 2 2
3 3 2 2 2 1 1 1 2 2 1 1 1 1 1 1 1 1 1 1 1 1 1 1 2 1 1 1 0 0 0 1 1 1 2 3 3 3 2 2 2 2 2
Wind_Direction
105 111 116 108 104 106 109 111 113 114 112 109 104 101 98 97 96 94 92 90 90 91 90 90 88 87 86 85 84 83 83 82 81 81 81 82 83 82 80 79 80 78 78
115 119 119 113 109 110 113 115 114 116 116 113 109 104 102 101 100 97 93 92 91 89 89 88 88 89 89 88 86 85 87 88 88 86 83 81 82 81 78 77 81 83 81
110 117 115 114 112 113 116 117 115 120 119 116 112 107 106 105 103 100 96 94 92 90 89 88 90 90 89 89 87 86 89 88 89 89 88 89 86 83 83 81 84 85 83
110 115 113 114 112 115 120 122 120 122 123 120 116 112 110 110 107 104 100 97 96 94 91 90 91 91 89 88 88 87 87 84 80 81 83 93 94 90 86 85 85 84 83
103 107 112 112 112 116 121 123 125 124 125 123 119 117 114 112 111 109 106 102 100 97 95 94 93 93 91 88 89 86 81 75 67 78 82 85 90 95 91 86 85 86 85
100 104 113 112 115 118 122 124 125 124 129 126 121 119 117 115 112 110 108 106 103 101 99 98 97 95 93 90 86 78 67 60 68 77 84 86 90 94 94 90 90 89 88
98 103 119 118 116 119 125 128 128 127 132 130 125 124 120 116 113 113 112 110 107 105 104 102 100 98 96 93 83 69 61 62 72 71 80 90 98 98 94 95 95 93 90
97 109 121 122 120 122 128 132 130 130 134 133 128 128 124 118 116 117 120 117 113 110 108 106 106 103 100 96 83 56 48 68 79 83 86 94 105 102 96 95 95 95 94
92 102 113 122 124 129 131 133 133 129 131 132 130 128 124 119 117 117 118 119 117 115 114 112 111 109 107 100 82 47 34 55 67 85 91 94 104 104 102 96 94 99 101
72 89 103 115 121 120 125 131 135 131 131 134 134 132 130 127 123 119 116 116 117 121 123 121 118 117 116 116 102 34 4 50 84 78 91 102 108 108 105 100 94 97 107
57 71 91 105 105 116 127 132 136 138 135 136 133 132 133 131 135 132 125 122 121 122 128 133 136 136 136 158 208 243 303 101 90 90 101 116 117 114 109 104 99 93 103
53 53 71 87 94 96 115 123 136 140 137 136 136 136 137 130 130 127 128 127 124 122 125 138 152 157 164 185 219 234 220 111 97 100 111 125 125 126 123 118 115 103 101
79 51 47 57 82 86 87 113 116 120 128 126 123 132 126 109 106 108 110 115 119 118 114 132 152 179 180 192 214 213 191 124 106 104 116 129 131 139 147 151 147 139 126
62 60 44 41 68 77 83 85 93 105 112 109 112 124 113 105 105 110 111 126 129 130 132 163 207 216 194 217 230 209 155 125 123 116 121 136 146 161 175 184 186 197 197
53 58 52 48 58 69 95 92 86 75 90 100 94 85 87 92 110 113 116 116 118 118 140 208 213 220 211 248 260 259 150 144 136 133 134 144 151 175 198 209 207 211 223
79 62 52 68 67 71 81 89 90 77 78 78 86 79 85 83 85 95 98 101 91 101 116 196 354 235 250 245 271 279 141 141 142 131 142 149 156 180 212 218 218 218 216
102 81 50 80 77 85 91 97 93 84 82 80 80 78 81 81 84 85 85 77 66 73 74 29 33 26 23 350 312 323 350 156 151 144 154 159 169 183 197 206 224 220 197
106 99 82 74 73 75 93 100 91 88 93 88 81 73 67 69 76 84 82 66 56 69 61 92 74 20 354 316 299 299 307 352 173 147 153 157 157 163 176 204 225 209 201
107 101 95 84 85 77 86 114 107 97 93 89 87 79 78 74 77 79 78 54 48 63 53 31 8 22 261 306 289 281 267 252 230 144 137 135 144 150 161 197 215 209 217
98 95 92 88 78 69 82 106 112 105 104 94 92 95 92 85 87 80 76 65 43 49 38 42 14 333 215 250 275 270 257 231 188 168 163 134 124 138 154 175 192 216 226
61 72 86 84 76 73 73 107 133 134 131 122 101 103 105 98 95 89 73 73 44 43 13 347 348 321 348 10 349 301 290 234 197 196 166 135 135 141 150 162 183 202 220
77 65 69 86 87 78 71 85 132 137 132 132 108 94 101 103 102 108 101 117 88 11 7 346 359 354 313 72 115 45 304 299 279 219 164 161 163 144 157 210 221 212 213
77 61 67 60 81 78 70 69 85 86 93 100 113 127 113 123 126 116 123 132 147 128 278 293 301 113 237 254 143 129 164 242 303 264 205 185 178 186 202 213 236 248 233
77 63 70 65 66 83 96 103 114 131 145 145 151 153 146 122 121 111 91 118 153 167 213 264 298 294 162 229 286 280 225 182 161 299 297 245 223 213 214 239 239 236 230
92 72 67 74 64 74 111 112 116 94 108 101 110 120 141 133 108 96 79 4 185 189 207 240 278 279 197 169 237 287 305 314 226 203 273 300 305 261 241 248 241 219 218
86 74 60 63 60 60 112 128 124 113 80 85 107 148 168 135 114 71 354 312 257 218 219 243 258 241 246 234 233 251 260 263 270 235 256 283 286 282 267 233 220 211 231
Height
1505 1506 1507 1509 1510 1511 1512 1513 1515 1516 1517 1518 1519 1520 1521 1522 1523 1524 1524 1525 1526 1526 1527 1528 1528 1529 1529 1530 1531 1531 1532 1532 1533 1533 1533 1534 1534 1535 1535 1535 1535 1536 1536
1504 1505 1507 1508 1510 1511 1512 1514 1515 1516 1518 1519 1520 1521 1522 1523 1524 1525 1526 1526 1527 1527 1528 1529 1529 1530 1531 1531 1532 1532 1533 1534 1534 1535 1535 1535 1536 1536 1536 1537 1537 1537 1537
1504 1505 1507 1508 1510 1511 1513 1514 1515 1517 1518 1520 1521 1522 1523 1524 1525 1526 1527 1527 1528 1529 1529 1530 1531 1531 1532 1532 1533 1534 1534 1535 1536 1536 1536 1537 1537 1537 1538 1538 1538 1539 1539
1504 1505 1506 1508 1510 1511 1513 1514 1516 1517 1519 1520 1521 1523 1524 1524 1525 1526 1527 1528 1529 1530 1530 1531 1532 1532 1533 1533 1534 1535 1535 1536 1537 1537 1537 1538 1538 1539 1539 1539 1539 1540 1540
1504 1505 1506 1508 1509 1511 1513 1514 1516 1517 1519 1520 1522 1523 1524 1525 1526 1527 1528 1529 1530 1530 1531 1532 1532 1533 1533 1534 1535 1536 1536 1537 1538 1538 1539 1539 1539 1540 1540 1540 1540 1541 1541
1504 1505 1506 1508 1509 1511 1512 1514 1516 1517 1519 1521 1522 1523 1524 1525 1526 1528 1528 1529 1530 1531 1531 1532 1533 1533 1534 1535 1535 1536 1537 1538 1538 1539 1539 1539 1540 1540 1540 1541 1541 1541 1542
1504 1505 1506 1507 1509 1511 1512 1514 1516 1517 1519 1521 1522 1523 1524 1526 1527 1528 1529 1530 1530 1531 1532 1532 1533 1534 1534 1535 1536 1537 1537 1538 1539 1539 1540 1540 1540 1541 1541 1541 1541 1542 1542
1504 1504 1506 1507 1509 1510 1512 1514 1515 1517 1518 1520 1522 1523 1525 1526 1527 1528 1529 1530 1531 1531 1532 1533 1533 1534 1534 1535 1536 1537 1538 1538 1539 1539 1540 1540 1540 1541 1541 1541 1542 1542 1542
1503 1504 1505 1507 1508 1510 1511 1513 1515 1516 1518 1520 1521 1523 1524 1525 1527 1528 1528 1530 1530 1531 1532 1533 1533 1534 1534 1535 1536 1537 1537 1538 1539 1539 1540 1540 1540 1541 1541 1541 1542 1542 1543
1503 1503 1504 1506 1507 1509 1511 1512 1514 1516 1518 1519 1521 1522 1524 1525 1526 1527 1528 1529 1530 1531 1532 1532 1533 1534 1534 1535 1536 1536 1537 1537 1538 1539 1539 1539 1540 1540 1541 1541 1542 1542 1542
1502 1503 1504 1505 1507 1508 1510 1511 1513 1515 1517 1518 1520 1521 1523 1524 1525 1526 1527 1529 1529 1530 1531 1532 1533 1533 1534 1534 1535 1536 1536 1537 1537 1538 1538 1539 1539 1540 1540 1541 1541 1541 1542
1501 1502 1503 1504 1506 1507 1509 1510 1512 1514 1516 1517 1519 1520 1522 1523 1524 1525 1527 1528 1529 1529 1530 1531 1532 1532 1533 1533 1534 1535 1535 1536 1536 1537 1537 1538 1539 1539 1539 1540 1540 1541 1541
1500 1501 1502 1503 1504 1506 1507 1509 1511 1512 1514 1516 1517 1519 1521 1522 1523 1524 1525 1526 1527 1528 1529 1530 1530 1531 1532 1532 1533 1534 1534 1534 1535 1535 1536 1537 1537 1538 1538 1539 1539 1539 1540
1499 1499 1500 1501 1503 1504 1506 1507 1509 1511 1512 1514 1516 1518 1519 1520 1521 1523 1524 1525 1525 1526 1527 1528 1528 1529 1530 1531 1531 1532 1532 1533 1533 1534 1534 1535 1536 1536 1537 1537 1537 1538 1538
1497 1498 1499 1500 1501 1502 1504 1506 1507 1509 1511 1512 1514 1516 1517 1518 1520 1521 1522 1523 1524 1524 1525 1526 1527 1528 1528 1529 1529 1530 1530 1531 1531 1532 1532 1533 1534 1534 1535 1535 1536 1536 1536
1495 1496 1497 1498 1499 1500 1502 1503 1505 1507 1508 1510 1512 1514 1515 1517 1518 1520 1520 1521 1522 1522 1523 1524 1525 1526 1526 1527 1527 1528 1529 1529 1529 1529 1530 1530 1531 1532 1532 1533 1533 1534 1534
1494 1494 1495 1496 1497 1498 1500 1501 1503 1505 1506 1508 1510 1512 1514 1515 1516 1518 1518 1519 1520 1521 1521 1522 1523 1523 1524 1524 1525 1526 1526 1527 1527 1527 1527 1528 1529 1529 1530 1530 1531 1531 1532
1492 1492 1493 1494 1494 1495 1497 1499 1501 1502 1504 1506 1507 1509 1512 1513 1514 1515 1516 1517 1518 1519 1519 1520 1520 1521 1521 1522 1522 1523 1523 1524 1524 1524 1525 1525 1525 1526 1527 1527 1528 1529 1529
1490 1491 1491 1492 1492 1493 1495 1496 1498 1500 1502 1503 1505 1507 1509 1511 1512 1513 1514 1515 1516 1516 1517 1517 1518 1518 1518 1519 1519 1520 1520 1521 1521 1522 1522 1522 1522 1523 1523 1524 1525 1526 1526
1489 1489 1489 1489 1490 1491 1493 1494 1496 1498 1500 1501 1503 1505 1507 1508 1509 1510 1511 1512 1513 1514 1514 1515 1515 1515 1516 1516 1516 1517 1517 1518 1518 1518 1519 1519 1520 1520 1520 1521 1522 1522 1523
1487 1487 1487 1487 1488 1489 1490 1492 1494 1495 1497 1499 1501 1503 1504 1505 1507 1508 1509 1510 1510 1511 1511 1512 1512 1513 1513 1513 1514 1514 1514 1514 1514 1515 1515 1516 1516 1517 1517 1518 1518 1519 1519
1485 1485 1485 1485 1486 1487 1488 1490 1492 1494 1495 1497 1498 1500 1502 1503 1504 1505 1506 1507 1507 1508 1509 1510 1510 1510 1510 1510 1511 1511 1511 1512 1511 1511 1512 1513 1513 1514 1514 1515 1515 1515 1516
1483 1483 1483 1484 1485 1485 1487 1488 1490 1491 1493 1494 1496 1498 1499 1500 1501 1502 1503 1504 1504 1505 1507 1507 1507 1507 1507 1508 1509 1510 1510 1509 1508 1509 1509 1510 1510 1511 1511 1512 1512 1512 1512
1481 1482 1482 1483 1483 1484 1485 1486 1487 1488 1490 1492 1494 1495 1497 1498 1498 1499 1500 1501 1501 1502 1503 1504 1504 1505 1505 1505 1506 1507 1508 1508 1508 1506 1507 1507 1507 1507 1508 1508 1508 1508 1508
1480 1481 1481 1482 1482 1483 1484 1484 1485 1487 1488 1490 1491 1492 1493 1494 1495 1496 1497 1498 1498 1499 1500 1501 1501 1502 1501 1502 1503 1504 1504 1505 1505 1505 1504 1504 1504 1504 1504 1504 1505 1505 1505
1479 1480 1480 1480 1481 1482 1483 1483 1484 1485 1486 1487 1488 1489 1490 1491 1491 1492 1494 1494 1495 1495 1496 1497 1497 1498 1498 1499 1499 1500 1501 1501 1502 1502 1501 1501 1500 1501 1501 1501 1501 1501 1501